Kezdőlap
METAR-TAF:

METAR-TAF

Repülőterek :

Hannibal, Missouri, Amerikai Egyesült Államok

földrajzi szélesség: 39-43-31N, földrajzi hosszúság: 091-26-38W, magasság: 234 m

Jelenlegi meteorológiai megfigyelések

A jelentés 22 perccel ezelõtt készült, 15:55 UTC
Kelet-északkeleti szél 10 kt széllökések: 14 kt
Hőmérséklet 13°C
Páratartalom 44%
Légköri nyomás 1027 hPa
Látótávolság: 16.1 km
Derült ég

METAR: KHAE 111555Z AUTO 06010G14KT 10SM CLR 13/01 A3033 RMK AO2

Idő: 11:17 (16:17 UTC)


TAF: hiányzik

Meteorológiai megfigyelések és előrejelzések több, mint 4000 repülőtéren (METAR és TAF jelentéseket).

A térképen piros és sárga pontok jelzik az elérhető meteorológiai állomásokat.

Mozgassa az egeret a pont fölött, hogy megjelenjen az állomás neve.

Azután kattintson az időjárási megfigyelések és előrejelzések megtekintéséhez.

A térkép megváltoztatása: kattintson a fekete keresztel jelölt zöld gombra ráközelítéshez, a vonallal jelölt zöld gombra távolításhoz, vagy a zöld nyilakra a szomszédos térképek eléréséhez.


METAR-TAF: